User: anonymous   Login
Location: ????????
(55.0097°N, 38.5678°E)
Time: 17:39:21
(UTC+00:00)
Language:

MSX - Orbit

View from above orbital plane
View from above orbital plane
View from above satellite
View from above satellite

Ground track
Ground track

The orbit data is extracted from the following two-line orbital elements,

1 23851U 96024A   24176.83893210  .00000286  00000-0  23075-3 0  9990
2 23851  98.9712 116.0558 0008860  69.1016 291.1095 13.98245740437394
Epoch (UTC): 24 June 2024 20:08:03
Eccentricity: 0.0008860
inclination: 98.9712°
perigee height: 893 km
apogee height: 906 km
right ascension of ascending node: 116.0558°
argument of perigee: 69.1016°
revolutions per day: 13.98245740
mean anomaly at epoch: 291.1095°
orbit number at epoch: 43739

The dashed part of the orbit path shows where the satellite is in the earth's shadow,  

DLR